Weather Service Report


901 
ASUS41 KCTP 200910
RWRCTP

REGIONAL WEATHER ROUNDUP
NATIONAL WEATHER SERVICE STATE COLLEGE PA
500 AM EDT FRI OCT 20 2017

Note: "fair" indicates few or no clouds below 12,000 feet with no 
significant weather and/or obstructions to visibility.

* = STATION THAT DOES NOT REPORT PRECIPITATION /E.G. RAIN...SNOW...ETC/
    THUNDER OR FOG.

PAZ002>004-007>009-013>016-020>023-029>032-201000-
WESTERN PENNSYLVANIA
  
CITY           SKY/WX    TMP DP  RH WIND       PRES   REMARKS
ERIE           FAIR      45  42  89 S5        30.21R                  
MEADVILLE      FAIR      50  43  77 CALM      30.22R                  
FRANKLIN*      FAIR      49  47  93 CALM      30.22R                  
NEW CASTLE     FAIR      46  46 100 CALM      30.23R                  
BEAVER COUNTY  NOT AVBL                                               
BUTLER*        FAIR      47  45  93 CALM      30.22R                  
PITTSBURGH INT FAIR      51  47  86 W5        30.21R                  
PITTSBURGH     FAIR      54  45  71 W8        30.21R                  
INDIANA*       MOCLDY    46  45  93 CALM      30.24R                  
LATROBE        FAIR      50  45  81 SW7       30.23R                  
WASHINGTON CO* FAIR      49  46  90 CALM      30.25R                  
$$

PAZ004>006-010>012-017>019-024>028-033>037-041-042-045-046-049>053-201000-
CENTRAL PENNSYLVANIA
  
CITY           SKY/WX    TMP DP  RH WIND       PRES   REMARKS
BRADFORD       FOG       41  41 100 CALM      30.20R VSB 1            
DUBOIS         FAIR      47  43  86 W3        30.20R                  
CLEARFIELD     FAIR      49  46  90 CALM      30.20R                  
JOHNSTOWN      FAIR      53  46  77 W9        30.21R                  
ALTOONA        FAIR      58  46  64 NW5       30.20R                  
STATE COLLEGE  FAIR      53  46  75 W6        30.19R                  
WILLIAMSPORT   FAIR      46  44  93 NW3       30.16R                  
SELINSGROVE    FAIR      44  44 100 CALM      30.18R                  
FT INDIANTOWN  FAIR      47  47  99 CALM      30.15R                  
CAPITAL CITY   FAIR      49  44  83 SW3       30.16R                  
HARRISBURG     FAIR      49  48  97 CALM      30.15S                  
YORK           FAIR      45  45 100 CALM      30.17R                  
$$

PAZ038>040-043-044-047-048-054-055-060>062-067>071-201000-
EASTERN PENNSYLVANIA
  
CITY           SKY/WX    TMP DP  RH WIND       PRES   REMARKS
SCRANTON       FAIR      53  45  74 W5        30.14R                  
MOUNT POCONO   FAIR      52  45  77 NW14G20   30.11S                  
ALLENTOWN      FAIR      50  45  83 SW5       30.13R                  
QUAKERTOWN*    FAIR      54  46  76 NW3       30.14R                  
READING        FAIR      50  48  93 CALM      30.14R                  
LANCASTER      FAIR      49  47  93 W6        30.16R                  
COATESVILLE    FAIR      54  46  76 W8        30.16R                  
POTTSTOWN      FAIR      51  47  86 CALM      30.15R                  
BLUE BELL      FAIR      46  46 100 CALM      30.15R                  
DOYLESTOWN     FAIR      51  47  86 S3        30.12R                  
WILLOW GROVE   NOT AVBL                                               
NORTH PHILA    FAIR      53  47  79 W6        30.14S                  
PHILADELPHIA   FAIR      55  48  77 W5        30.14R                  
$$
  

Return to Home page


Western Regional Climate Center, wrcc@dri.edu